STARLINK-3704, 51959

Orbit data source: Space-Track

STARLINK-3704, 51959 is a payload satellite owned by SpaceX/Seattle (US) in LEO that was launched on Wed, 09 Mar 2022 UTC via an FALCON 9 launch vehicle from the Air Force Eastern Test Range (AFETR). Payload-class satellites include a variety of spacecraft equipped with specific instruments for various scientific and technological missions. These include communications satellites like Starlink; space stations such as the ISS; scientific satellites like the Hubble; Earth observation satellites from companies like Planet Labs, Umbra, and HawkEye 360; GPS; miniature CubeSats for education and research; and military/defense satellites.

Loading next visibility...
Identifier
51959, 2022-025D
Orbit
LEO
Country
Flag of USUS
Related business
Manufacturer
SpaceX/Seattle
Mission
Operational Commercial Communications
Bus & Motor
STARLINK, Unknown motor
Mass
297 kg wet, ~275 kg dry
Launch date (UTC)
2022-03-09 (4 years ago)
Launch vehicle
FALCON 9
Launch site
Air Force Eastern Test Range (AFETR)
Object type
Payload
Rocket body
Debris
Shape & HBR
Box + 1 Pan, 10.1 m
Radar Cross Section
13.562 m², Large (>1 m²)

Expand to show TLE details & history
Last TLE update: 10 hours ago

TLE from 10 hours ago
0 STARLINK-3704
1 51959U 22025D   25346.95809406 -.00001154  00000-0 -58593-4 0  9998
2 51959  53.0578  65.1972 0001684  93.6969 266.4213 15.06398456207774
Epoch: 2025-12-12T22:59Z
TLE epoch observation values (Epoch: 2025-12-12T22:59:39.326Z)
Latitude
-0°
Longitude
-1.60892°
Altitude
548.169 km
Speed
7.589 km/s
True Right ascension
04h 20m 47s
True Declination
0° 00' 00"
Sunlit
Object was in full shadow at epoch
Visualization orbit readout
Latitude
Unknown
Longitude
Unknown
Altitude
Unknown
Speed
Unknown
Apparent Right ascension
Unknown
Apparent Declination
Unknown
Sunlit
N/A
Visualization observer readout
Local Sidereal Time
07:28:04
Azimuth
Unknown
Elevation
Unknown
Doppler factor
Unknown
Orbital elements
Apogee altitude
548.653 km
Perigee altitude
546.32 km
Semi-major axis
6,925.623 km
Eccentricity
0.00017
Inclination
53.0578°
RAAN
65.1972°
Arg. of periapsis
93.6969°
True anomaly
266.40204°
Mean anomaly
266.4213°
Eccentric anomaly
266.41167°
Mean motion
3.76578 °/min
Orbital period
95.6 mins
BSTAR
-0.000058593
Loading maneuver chart data...
Computing Atmospheric mass density...
Loading historical data...
Loading historical data...
Loading historical data...
Loading historical data...
Loading historical data...
Loading historical data...
Loading historical data...

Documentation

Showing up to 5 results
|